User: anonymous   Login
Location: Unspecified
(0.0000°N, 0.0000°E)
Time: 07:55:05
(UTC+00:00)
Language:

ISIS 1 - Orbit

View from above orbital plane
View from above orbital plane
View from above satellite
View from above satellite

Ground track
Ground track

The orbit data is extracted from the following two-line orbital elements,

1  3669U 69009A   19082.52447510 +.00000008 +00000-0 -40205-5 0  9991
2  3669 088.4168 076.6973 1711799 177.5307 183.5716 11.29467007061706
Epoch (UTC): 23 March 2019 12:35:14
Eccentricity: 0.1711799
inclination: 88.4168°
perigee height: 576 km
apogee height: 3449 km
right ascension of ascending node: 76.6973°
argument of perigee: 177.5307°
revolutions per day: 11.29467007
mean anomaly at epoch: 183.5716°
orbit number at epoch: 6170

The dashed part of the orbit path shows where the satellite is in the earth's shadow,  

DLR